User: anonymous   Login
Location: Saint-Denis
(20.8800°S, 55.4481°E)
Time: 04:10:06
(UTC+04:00)
Language:

ITUPSAT 1 - Orbit

View from above orbital plane
View from above orbital plane
View from above satellite
View from above satellite

Ground track
Ground track

The orbit data is extracted from the following two-line orbital elements,

1 35935U 09051E   23157.68318566  .00000813  00000-0  19282-3 0  9998
2 35935  98.5253  29.0783 0009180  60.4201 299.7910 14.56671545727466
Epoch (UTC): 06 June 2023 16:23:47
Eccentricity: 0.0009180
inclination: 98.5253°
perigee height: 697 km
apogee height: 710 km
right ascension of ascending node: 29.0783°
argument of perigee: 60.4201°
revolutions per day: 14.56671545
mean anomaly at epoch: 299.7910°
orbit number at epoch: 72746

The dashed part of the orbit path shows where the satellite is in the earth's shadow,  

DLR